Location: Miles
(41.4492°N, 81.6087°W)
Time: 07:26:58
(UTC+00:00)

Transit 2A - Pass Details

Date: 17 September 2024
Orbit: 590 x 960 km, 66.7° (Epoch: 09 October)

Event Time Altitude Azimuth Distance (km) Brightness Sun altitude
Rises 21:43:06 0° 159° (SSE) 3,374 9.3 19.3°
Reaches altitude 10° 21:46:22 10° 140° (SE) 2,513 8.5 18.7°
Maximum altitude 21:49:57 17° 102° (ESE) 2,134 7.9 18.0°
Drops below altitude 10° 21:53:40 10° 65° (ENE) 2,639 8.3 17.3°
Sets 21:57:12 0° 46° (NE) 3,624 9.0 16.7°
